This is the latest recevied weather packets stored in our database for station/object K8GLX. If no packets are shown the sender has not sent any weather packets the latest 10 day(s).
| Time | Temp. | Humidity | Pressure | Rain* | Wind** | Luminosity | Snow |
|---|---|---|---|---|---|---|---|
| 1777547539 | 5.56° C | 84% | 1012.6 hPa | 0 mm | - | 32 W/m² | - |
| 1777547233 | 5.56° C | 85% | 1012.4 hPa | 0 mm | - | 24 W/m² | - |
| 1777546939 | 5.56° C | 84% | 1012.5 hPa | 0 mm | - | 14 W/m² | - |
| 1777546633 | 5.56° C | 84% | 1012.5 hPa | 0 mm | - | 11 W/m² | - |
| 1777546338 | 5.56° C | 85% | 1012.5 hPa | 0 mm | - | 8 W/m² | - |
| 1777546032 | 5.56° C | 84% | 1012.3 hPa | 0 mm | - | 6 W/m² | - |
| 1777545865 | 5.56° C | 84% | 1012.3 hPa | 0 mm | - | 5 W/m² | - |
| 1777545433 | 5.56° C | 84% | 1012.4 hPa | 0 mm | - | 3 W/m² | - |
| 1777545266 | 5.56° C | 85% | 1012.4 hPa | 0 mm | - | 2 W/m² | - |
| 1777544833 | 5.56° C | 84% | 1012.1 hPa | 0 mm | - | 0 W/m² | - |
| 1777544665 | 5.56° C | 84% | 1012.3 hPa | 0 mm | - | 0 W/m² | - |
| 1777544261 | 5.56° C | 84% | 1012.2 hPa | 0 mm | - | 0 W/m² | - |
| 1777544065 | 5.56° C | 84% | 1012 hPa | 0 mm | - | 0 W/m² | - |
| 1777543640 | 5.56° C | 84% | 1012.1 hPa | 0 mm | - | 0 W/m² | - |
| 1777543576 | 5.56° C | 84% | 1012.1 hPa | 0 mm | - | 0 W/m² | - |
| 1777543149 | 5.56° C | 84% | 1011.7 hPa | 0 mm | - | 0 W/m² | - |
| 1777542865 | 5.56° C | 84% | 1011.9 hPa | 0 mm | - | 0 W/m² | - |
| 1777542432 | 5.56° C | 84% | 1011.9 hPa | 0 mm | - | 0 W/m² | - |
| 1777542138 | 5.56° C | 84% | 1011.7 hPa | 0 mm | - | 0 W/m² | - |
| 1777541832 | 5.56° C | 84% | 1011.9 hPa | 0 mm | - | 0 W/m² | - |
| 1777541538 | 5.56° C | 85% | 1011.8 hPa | 0 mm | - | 0 W/m² | - |
| 1777541233 | 5.56° C | 85% | 1012 hPa | 0 mm | - | 0 W/m² | - |
| 1777540938 | 5.56° C | 85% | 1011.7 hPa | 0 mm | - | 0 W/m² | - |
| 1777540633 | 5.56° C | 85% | 1011.7 hPa | 0 mm | - | 0 W/m² | - |
| 1777540337 | 5.56° C | 86% | 1011.7 hPa | 0 mm | - | 0 W/m² | - |
* Rain latest hour (hover to see other rain measurements)
** Current wind speed in m/s (hover to see current wind gust speed)